TimeEDT,TemperatureF,Dew PointF,Humidity,Sea Level PressureIn,VisibilityMPH,Wind Direction,Wind SpeedMPH,Gust SpeedMPH,PrecipitationIn,Events,Conditions,WindDirDegrees,DateUTC
12:51 AM,54.0,50.0,86,30.21,9.0,Calm,Calm,-,0.00,Rain,Light Rain,0,2013-10-30 04:51:00
1:51 AM,53.1,51.1,93,30.19,6.0,Calm,Calm,-,0.01,Rain,Light Rain,0,2013-10-30 05:51:00
2:51 AM,53.1,51.1,93,30.19,4.0,Calm,Calm,-,0.01,Rain,Light Rain,0,2013-10-30 06:51:00
3:51 AM,53.1,52.0,96,30.18,1.2,NNE,3.5,-,0.04,Rain,Light Rain,30,2013-10-30 07:51:00
4:51 AM,54.0,53.1,97,30.15,4.0,Calm,Calm,-,0.02,,Overcast,0,2013-10-30 08:51:00
4:53 AM,53.6,51.8,94,30.16,1.0,Calm,Calm,-,N/A,,Overcast,0,2013-10-30 08:53:00
5:51 AM,54.0,53.1,97,30.17,1.8,NE,3.5,-,0.02,Rain,Light Rain,50,2013-10-30 09:51:00
5:58 AM,53.6,53.6,100,30.17,0.2,NE,3.5,-,0.01,Fog-Rain,Light Rain,50,2013-10-30 09:58:00
6:20 AM,53.6,53.6,100,30.16,2.5,East,4.6,-,0.07,Rain,Light Rain,100,2013-10-30 10:20:00
6:51 AM,55.0,54.0,96,30.17,0.8,East,3.5,-,0.12,Rain,Light Rain,100,2013-10-30 10:51:00
6:53 AM,55.4,53.6,94,30.17,0.8,East,3.5,-,0.00,Rain,Light Rain,90,2013-10-30 10:53:00
7:03 AM,53.6,53.6,100,30.17,0.2,NE,3.5,-,0.01,Fog-Rain,Light Rain,40,2013-10-30 11:03:00
7:31 AM,53.6,53.6,100,30.18,0.2,Calm,Calm,-,0.02,Fog-Rain,Light Rain,0,2013-10-30 11:31:00
7:51 AM,54.0,53.1,97,30.17,0.2,Calm,Calm,-,0.02,Fog-Rain,Light Rain,0,2013-10-30 11:51:00
8:51 AM,55.9,55.0,97,30.18,1.0,Calm,Calm,-,0.00,,Overcast,0,2013-10-30 12:51:00
9:51 AM,57.0,55.0,93,30.19,1.0,SSW,4.6,-,0.01,,Overcast,210,2013-10-30 13:51:00
9:54 AM,57.2,55.4,94,30.19,1.0,SSW,4.6,-,N/A,,Overcast,210,2013-10-30 13:54:00
10:00 AM,57.2,55.4,94,30.19,1.0,SSW,3.5,-,N/A,,Overcast,200,2013-10-30 14:00:00
10:51 AM,59.0,57.0,93,30.19,2.0,SSW,3.5,-,0.01,,Overcast,210,2013-10-30 14:51:00
11:28 AM,60.8,57.2,88,30.19,6.0,SSW,4.6,-,N/A,,Overcast,200,2013-10-30 15:28:00
11:51 AM,63.0,60.1,90,30.19,6.0,South,5.8,-,N/A,,Mostly Cloudy,190,2013-10-30 15:51:00
12:26 PM,64.4,60.8,88,30.19,6.0,WSW,8.1,-,N/A,,Haze,250,2013-10-30 16:26:00
12:51 PM,66.0,60.1,81,30.17,10.0,SW,3.5,-,N/A,,Overcast,220,2013-10-30 16:51:00
1:51 PM,66.0,61.0,84,30.15,10.0,Calm,Calm,-,N/A,,Overcast,0,2013-10-30 17:51:00
2:51 PM,66.9,61.0,81,30.12,10.0,SSW,6.9,-,N/A,,Overcast,200,2013-10-30 18:51:00
3:51 PM,66.0,60.1,81,30.12,10.0,South,5.8,-,N/A,,Overcast,190,2013-10-30 19:51:00
4:51 PM,66.0,60.1,81,30.12,10.0,South,3.5,-,N/A,,Overcast,170,2013-10-30 20:51:00
5:51 PM,66.0,60.1,81,30.12,10.0,Calm,Calm,-,N/A,,Overcast,0,2013-10-30 21:51:00
6:23 PM,64.4,60.8,88,30.12,10.0,SE,4.6,-,N/A,,Overcast,130,2013-10-30 22:23:00
6:51 PM,64.9,60.1,84,30.12,10.0,SSE,3.5,-,N/A,,Overcast,150,2013-10-30 22:51:00
7:51 PM,64.9,60.1,84,30.13,10.0,SE,3.5,-,N/A,,Overcast,140,2013-10-30 23:51:00
8:51 PM,63.0,60.1,90,30.11,10.0,Calm,Calm,-,N/A,,Overcast,0,2013-10-31 00:51:00
8:58 PM,62.6,60.8,94,30.12,10.0,Calm,Calm,-,N/A,,Overcast,0,2013-10-31 00:58:00
9:51 PM,63.0,60.1,90,30.11,10.0,Calm,Calm,-,N/A,,Overcast,0,2013-10-31 01:51:00
10:51 PM,63.0,60.1,90,30.10,9.0,SE,3.5,-,N/A,,Overcast,130,2013-10-31 02:51:00
11:51 PM,62.1,60.1,93,30.08,8.0,Calm,Calm,-,N/A,,Overcast,0,2013-10-31 03:51:00